SCP
0 0 0 0 0 0 0 0 0 0 0 0 -0 0 -0 -0 -0 -0 -0 -0 -0 -0 -0 -0 -0 -0 -0 -0 -0 -0 -0 -0 -0 -0 -0 -0 -0 0 -0 0 0 -0 0 -0
0 0 0 0 0 0 0 0 0 0 0 0 0 0 0 -0 -0 -0 -0 -0 -0 -0 -0 -0 -0 -0 -0 -0 -0 -0 -0 -0 -0 -0 -0 0 0 0 0 -0 -0 -0 -0 0
0 0 0 0 -0 0 0 -0 0 0 0 -0 0 -0 -0 0 0 0 0 -0 -0 -0 -0 -0 -0 -0 -0 -0 -0 -0 -0 -0 -0 -0 -0 0 0 -0 -0 -0 -0 -0 -0 -0
0 0 0 0 0 0 -0 0 0 0 0 -0 0 0 0 0 -0 0 -0 0 -0 -0 -0 -0 -0 -0 -0 -0 -0 -0 -0 -0 -0 -0 -0 -0 0 0 0 0 0 0 -0 -0
0 0 0 -0 0 0 0 0 0 0 0 0 0 0 0 0 -0 -0 -0 -0 0 -0 -0 -0 -0 -0 -0 -0 -0 -0 -0 -0 -0 -0 -0 -0 -0 0 0 0 0 0 0 0
0 0 0 0 0 0 0 -0 -0 -0 -0 -0 0 0 0 0 0 0 0 0 0 -0 -0 -0 -0 -0 -0 -0 -0 -0 -0 -0 -0 -0 -0 -0 -0 0 0 0 0 0 0 0
-0 -0 0 0 0 0 -0 -0 0 0 -0 0 0 0 -0 0 0 0 0 0 0 -0 -0 -0 -0 -0 0 -0 -0 -0 -0 -0 -0 0 -0 -0 -0 0 0 0 0 0 0 0
-0 -0 -0 0 -0 -0 0 -0 -0 0 0 0 0 0 0 0 0 0 0 -0 -0 -0 -0 -0 -0 0 0 0 0 -0 -0 -0 -0 0 0 -0 0 0 0 0 0 1 0 0
0 0 0 0 0 0 0 0 0 0 0 -0 0 0 0 0 0 0 0 -0 -0 -0 -0 0 0 0 0 0 0 0 0 0 0 0 0 0 0 0 -0 0 1 1 0 0
0 0 0 -0 -0 0 0 0 0 0 0 0 0 0 0 0 0 0 0 0 0 0 0 1 1 0 0 0 0 0 0 1 1 0 0 0 0 0 0 0 0 0 -0 0
0 0 -0 -0 0 0 -0 -0 0 0 0 0 0 0 0 0 0 0 0 0 0 0 1 0 0 0 0 0 1 0 0 1 1 1 1 1 0 0 0 0 0 0 0 0
-0 0 0 0 0 0 0 0 0 0 0 0 0 0 0 0 0 0 0 0 0 0 0 0 0 0 1 1 2 2 2 1 1 1 0 0 0 0 0 0 1 1 0 0
0 0 0 0 0 0 0 0 0 0 0 0 0 0 0 0 0 1 1 1 1 1 0 0 0 0 0 1 1 1 1 1 0 0 0 0 0 0 0 0 0 0 0 0
0 0 0 0 0 0 0 0 0 0 0 0 0 0 0 1 1 1 1 1 1 1 0 0 0 0 0 0 0 0 0 0 0 0 0 0 0 0 0 0 0 0 0 0
0 0 0 0 0 0 0 0 0 0 0 0 0 0 0 1 1 1 1 1 1 0 0 0 0 0 0 0 0 0 0 0 0 0 0 0 0 0 0 1 0 0 0 0
0 0 0 0 0 0 0 0 0 0 0 0 0 0 0 0 1 1 1 1 1 0 0 0 0 0 0 0 0 0 0 0 0 0 0 0 0 0 0 0 0 0 1 0
0 0 0 0 0 0 -0 0 0 0 0 0 0 1 1 1 1 1 1 1 1 0 0 0 0 0 0 0 0 0 0 0 0 0 0 0 0 0 0 0 0 0 0 1
0 0 0 0 0 0 0 0 0 0 0 0 0 0 0 0 0 1 1 0 0 0 0 0 0 0 0 0 0 0 0 0 0 0 0 0 0 0 0 0 0 0 0 0
0 0 0 0 0 0 0 0 0 0 0 0 0 0 0 1 1 0 0 0 0 0 0 0 0 0 0 0 0 0 0 0 0 0 0 0 0 0 0 0 0 0 0 0
0 0 0 0 0 0 0 0 0 0 0 0 0 0 0 0 0 0 0 0 0 0 0 0 0 0 0 0 0 0 0 0 0 0 0 0 0 0 0 1 1 0 0 0
0 0 0 0 0 0 0 0 0 0 0 0 0 0 0 0 0 0 0 0 0 0 0 0 0 0 0 0 0 0 0 0 0 0 0 0 0 0 0 1 1 0 0 0
0 0 0 0 0 0 0 0 0 0 0 0 0 0 0 0 0 0 0 0 0 0 0 0 0 0 0 0 0 0 0 0 0 0 0 0 0 0 0 1 1 1 0 0
0 0 0 0 0 0 0 0 0 0 0 0 0 0 0 0 0 0 0 0 0 0 0 0 0 0 0 0 0 0 0 0 0 0 0 0 0 0 0 1 0 0 0 0
0 0 0 0 0 0 0 0 0 0 0 0 0 0 0 0 0 0 0 0 0 0 0 0 0 0 0 0 0 0 0 0 0 0 0 0 0 0 0 0 0 0 0 0
0 0 0 0 0 0 0 0 0 0 0 0 0 0 0 0 0 0 0 0 0 0 0 0 0 0 0 0 0 0 0 0 0 0 0 0 0 0 0 0 0 0 0 0
0 0 0 0 0 0 0 0 0 0 0 0 0 0 0 0 0 0 0 0 0 0 0 0 0 0 0 0 0 0 0 0 0 0 0 0 0 0 0 0 0 0 0 0
Wind_Speed_500mb
9 18 25 1 9 10 10 9 6 3 4 9 15 13 20 27 28 31 33 34 34 33 31 31 31 32 31 30 30 30 29 30 32 30 24 22 20 22 22 19 20 20 26 26
16 26 4 4 7 10 14 11 8 6 3 8 4 11 2 18 25 30 35 34 33 32 31 32 33 34 33 34 34 33 32 35 34 33 27 22 20 19 16 19 20 19 20 25
28 17 15 14 16 18 19 17 8 11 5 10 13 14 9 10 14 21 28 29 31 33 33 32 34 35 34 36 36 37 37 34 33 33 30 26 23 20 19 19 21 20 19 19
20 10 15 18 21 15 22 9 3 6 11 11 9 7 14 7 14 16 25 27 31 33 32 30 32 33 35 35 33 34 34 35 34 36 34 34 25 22 19 18 17 17 21 22
14 22 22 25 9 9 13 5 4 8 16 13 22 15 20 17 24 18 14 9 26 32 35 36 34 31 30 29 30 33 34 35 36 37 39 34 32 24 19 16 20 17 23 21
5 5 12 7 9 3 6 11 13 13 19 19 9 16 19 10 5 6 7 4 18 33 37 34 34 33 33 31 30 29 30 31 34 36 36 39 30 23 21 22 19 18 11 19
22 24 11 11 16 12 18 25 17 15 14 4 11 12 22 11 8 8 7 10 10 30 33 35 36 37 31 31 31 29 32 31 31 33 35 35 36 34 30 26 23 22 18 22
23 28 29 22 27 23 23 24 18 10 9 14 7 10 12 9 10 13 18 19 20 22 26 27 26 24 24 25 27 28 29 31 31 33 33 34 35 37 30 28 25 23 25 24
16 18 9 9 11 22 19 23 11 11 3 16 10 9 13 11 13 18 23 24 26 25 24 22 18 16 14 18 20 21 24 25 24 24 27 30 31 34 32 33 38 32 35 29
5 9 5 13 16 8 17 4 16 16 7 18 13 7 9 19 16 17 21 24 27 25 25 22 17 12 12 11 9 13 18 15 16 19 17 18 19 21 25 26 24 31 36 41
9 13 18 13 6 7 14 18 10 13 12 16 12 15 12 19 20 21 23 25 27 26 25 25 24 23 21 18 16 13 13 13 11 13 12 11 9 10 20 26 24 27 23 32
14 8 11 12 10 3 4 8 18 15 16 17 19 6 6 24 25 28 28 28 31 31 32 32 33 33 30 27 23 22 17 13 11 8 7 4 10 13 13 17 18 23 26 27
14 11 16 22 20 13 7 4 1 13 15 27 19 6 8 26 28 28 32 31 30 29 27 27 27 29 30 29 26 26 25 21 12 4 4 4 6 8 11 13 16 21 27 30
3 9 16 2 11 10 7 10 5 15 17 21 18 14 17 22 26 31 31 31 28 25 22 22 22 22 21 20 19 17 14 15 10 4 2 8 11 15 19 22 24 25 27 31
7 8 3 4 8 3 7 12 12 18 23 26 29 13 7 21 28 33 33 31 28 24 20 16 14 14 12 9 5 3 3 6 9 14 15 15 17 25 28 29 31 35 33 32
10 6 2 11 8 12 19 23 20 20 21 23 28 30 2 12 26 32 32 31 27 21 14 12 11 8 5 3 4 6 9 12 18 23 23 25 29 28 29 31 35 39 41 39
6 6 9 23 7 15 27 10 11 15 14 17 19 13 5 15 25 28 31 26 21 16 14 12 9 7 8 11 14 16 17 20 26 35 36 37 41 41 38 35 39 41 39 40
8 14 13 21 9 28 10 7 5 11 4 6 5 3 9 15 21 23 23 22 18 15 13 12 13 15 19 21 25 27 30 31 36 39 42 49 54 57 56 43 36 35 40 43
11 18 18 16 23 13 15 13 12 12 9 6 6 12 15 16 15 15 17 16 16 15 15 16 19 23 26 30 32 33 35 36 38 41 45 48 48 48 47 47 45 45 43 43
9 13 19 19 22 21 12 11 9 4 14 18 13 19 21 22 15 7 21 15 15 16 19 23 27 32 35 38 38 40 42 44 47 48 53 55 60 55 52 52 53 53 51 52
9 10 21 21 21 10 12 14 12 14 10 17 14 17 19 16 17 10 6 8 18 24 27 31 34 37 38 38 40 43 47 51 53 52 54 60 61 60 59 60 56 53 54 55
11 10 12 14 13 25 15 14 13 11 12 13 11 7 6 7 9 13 17 21 26 31 36 39 42 43 43 44 46 49 51 50 50 50 54 58 60 58 58 59 57 55 55 56
9 6 11 8 9 7 9 8 12 10 18 13 8 6 4 11 18 23 28 32 36 40 42 44 47 50 48 48 50 54 54 51 51 51 54 54 51 50 52 57 61 57 58 58
9 5 6 8 10 13 17 18 16 14 15 10 7 6 12 19 25 32 35 38 42 46 49 50 50 53 55 52 52 53 51 51 49 50 47 47 48 48 43 45 50 56 60 62
9 13 8 5 13 15 13 14 15 14 10 7 8 13 18 23 30 35 40 44 46 45 45 43 47 52 54 51 48 41 45 50 51 47 49 48 43 42 40 43 46 48 52 54
17 8 12 5 25 1 28 16 11 8 7 10 15 20 22 25 29 32 37 38 38 37 44 54 50 47 46 48 48 49 50 50 51 50 48 48 44 43 50 53 53 52 57 61
Wind_Direction_500mb
205 250 220 302 7 356 327 305 321 20 9 274 253 253 156 177 195 181 190 180 179 184 182 191 193 198 202 207 211 216 219 222 220 217 216 218 223 230 226 236 243 243 236 242
214 230 190 243 250 264 285 288 240 124 82 238 284 262 331 179 195 198 193 186 184 180 181 188 194 197 201 205 208 216 219 221 221 221 219 223 232 229 249 249 251 249 242 241
243 216 114 222 212 245 230 261 351 304 319 207 262 222 159 140 190 190 198 198 189 188 188 192 195 199 203 207 207 211 217 222 223 221 221 231 235 230 239 240 244 253 257 250
229 149 218 214 236 248 254 52 333 279 259 214 256 153 158 102 121 169 184 193 201 198 197 194 195 199 205 208 207 211 214 222 225 225 219 224 227 236 250 256 256 240 255 246
149 184 192 214 218 239 56 30 317 301 265 260 186 265 117 140 121 101 105 183 205 198 196 196 196 199 199 204 207 209 217 221 222 228 225 230 236 244 242 240 244 262 251 253
191 177 252 210 133 267 148 229 223 239 259 241 139 263 123 101 73 125 31 305 219 202 188 187 189 190 193 192 196 204 218 222 226 231 234 237 235 244 240 252 253 253 271 254
186 200 185 220 223 180 221 243 242 213 198 252 102 241 67 79 60 38 48 64 122 173 179 181 184 189 190 194 192 203 220 227 228 233 235 240 244 237 246 251 253 254 248 257
204 180 202 186 239 265 210 266 263 244 192 142 148 241 93 72 78 75 85 92 105 133 156 169 177 183 188 197 200 205 221 229 230 233 238 238 242 245 252 256 246 253 259 259
189 227 125 213 223 238 178 231 318 292 220 273 131 130 142 133 109 99 99 101 102 112 124 134 142 154 171 199 207 211 220 230 228 231 236 240 242 244 253 258 258 262 273 254
105 154 159 128 180 174 279 101 203 218 197 253 141 255 91 164 135 120 113 112 112 114 114 114 115 128 155 175 192 215 216 215 214 219 238 243 244 252 254 267 286 290 266 269
261 277 140 173 248 133 178 206 230 311 307 299 217 201 98 150 149 131 117 120 119 114 110 102 95 95 104 102 96 94 129 163 165 202 211 240 283 272 262 281 300 298 294 277
217 245 168 97 111 94 355 2 283 266 204 237 306 30 130 135 145 133 127 122 117 114 108 102 95 92 93 89 88 89 92 105 120 138 105 326 308 308 280 285 295 301 294 285
178 239 171 177 173 183 230 109 298 291 286 280 273 218 139 148 148 146 140 134 128 123 116 108 100 93 90 86 83 86 89 99 105 103 325 291 275 292 295 300 307 311 307 306
208 286 305 92 321 33 181 204 226 279 279 276 234 269 160 183 175 160 153 146 138 132 125 118 111 108 103 95 90 84 80 69 57 83 265 269 279 287 293 294 304 307 308 305
273 266 261 37 73 311 307 281 252 260 274 272 278 290 319 197 193 178 167 158 153 148 141 134 127 122 110 99 99 66 2 325 303 299 289 281 279 293 297 294 296 301 301 298
206 182 242 279 229 256 267 273 266 265 270 271 271 275 314 226 184 181 177 173 166 160 163 159 151 147 157 194 256 296 305 304 305 307 303 301 304 301 297 290 290 292 294 293
232 172 242 275 188 261 261 300 291 280 272 275 268 12 127 175 180 186 183 181 178 187 186 184 196 226 260 285 301 312 311 309 304 301 299 299 300 296 290 282 281 283 282 283
212 242 283 281 264 260 48 70 282 267 299 242 281 139 168 173 182 185 191 196 203 203 203 224 253 275 289 300 306 311 310 308 305 302 301 303 302 300 296 287 274 274 281 282
256 252 265 265 259 257 221 214 198 221 142 194 162 145 143 145 161 189 207 215 212 216 236 258 275 288 293 298 299 297 295 292 291 292 294 294 291 289 286 279 273 275 278 280
252 251 263 240 267 271 67 137 170 226 251 161 171 164 166 169 217 128 187 212 228 247 266 278 283 286 288 288 288 287 288 289 288 291 290 289 290 286 281 275 274 277 277 282
229 254 242 237 244 235 115 144 170 231 73 143 169 170 177 207 44 79 72 249 264 275 282 289 291 292 290 290 288 284 286 286 289 288 289 290 288 283 278 276 272 274 277 280
252 251 227 245 244 243 145 152 237 68 121 126 127 136 197 276 298 311 306 297 292 290 291 292 291 291 289 287 287 288 287 289 288 288 288 288 284 278 274 269 266 266 270 277
241 283 339 318 37 97 123 66 116 115 122 119 120 92 345 307 304 305 302 299 296 295 294 294 293 293 290 290 289 289 290 291 289 288 287 286 284 280 271 269 270 271 274 276
183 198 255 217 121 118 133 120 111 110 111 98 64 1 332 318 310 306 303 300 299 297 297 296 294 292 291 290 289 289 291 290 290 287 284 290 290 286 283 276 274 276 273 272
46 170 187 132 139 142 149 137 130 115 91 56 12 348 332 321 311 307 303 301 300 298 297 296 295 294 293 292 289 287 294 289 292 286 288 287 283 287 285 282 279 276 273 270
191 194 227 355 141 60 144 143 135 113 62 16 351 333 325 320 312 310 306 304 304 302 297 300 297 296 294 291 294 295 296 297 293 294 292 291 289 287 288 286 288 284 281 273
Wind_Speed_850mb
9 18 25 1 9 10 10 9 6 3 4 9 15 13 20 27 28 31 33 34 34 33 31 31 31 32 31 30 30 30 29 30 32 30 24 22 20 22 22 19 20 20 26 26
16 26 4 4 7 10 14 11 8 6 3 8 4 11 2 18 25 30 35 34 33 32 31 32 33 34 33 34 34 33 32 35 34 33 27 22 20 19 16 19 20 19 20 25
28 17 15 14 16 18 19 17 8 11 5 10 13 14 9 10 14 21 28 29 31 33 33 32 34 35 34 36 36 37 37 34 33 33 30 26 23 20 19 19 21 20 19 19
20 10 15 18 21 15 22 9 3 6 11 11 9 7 14 7 14 16 25 27 31 33 32 30 32 33 35 35 33 34 34 35 34 36 34 34 25 22 19 18 17 17 21 22
14 22 22 25 9 9 13 5 4 8 16 13 22 15 20 17 24 18 14 9 26 32 35 36 34 31 30 29 30 33 34 35 36 37 39 34 32 24 19 16 20 17 23 21
5 5 12 7 9 3 6 11 13 13 19 19 9 16 19 10 5 6 7 4 18 33 37 34 34 33 33 31 30 29 30 31 34 36 36 39 30 23 21 22 19 18 11 19
22 24 11 11 16 12 18 25 17 15 14 4 11 12 22 11 8 8 7 10 10 30 33 35 36 37 31 31 31 29 32 31 31 33 35 35 36 34 30 26 23 22 18 22
23 28 29 22 27 23 23 24 18 10 9 14 7 10 12 9 10 13 18 19 20 22 26 27 26 24 24 25 27 28 29 31 31 33 33 34 35 37 30 28 25 23 25 24
16 18 9 9 11 22 19 23 11 11 3 16 10 9 13 11 13 18 23 24 26 25 24 22 18 16 14 18 20 21 24 25 24 24 27 30 31 34 32 33 38 32 35 29
5 9 5 13 16 8 17 4 16 16 7 18 13 7 9 19 16 17 21 24 27 25 25 22 17 12 12 11 9 13 18 15 16 19 17 18 19 21 25 26 24 31 36 41
9 13 18 13 6 7 14 18 10 13 12 16 12 15 12 19 20 21 23 25 27 26 25 25 24 23 21 18 16 13 13 13 11 13 12 11 9 10 20 26 24 27 23 32
14 8 11 12 10 3 4 8 18 15 16 17 19 6 6 24 25 28 28 28 31 31 32 32 33 33 30 27 23 22 17 13 11 8 7 4 10 13 13 17 18 23 26 27
14 11 16 22 20 13 7 4 1 13 15 27 19 6 8 26 28 28 32 31 30 29 27 27 27 29 30 29 26 26 25 21 12 4 4 4 6 8 11 13 16 21 27 30
3 9 16 2 11 10 7 10 5 15 17 21 18 14 17 22 26 31 31 31 28 25 22 22 22 22 21 20 19 17 14 15 10 4 2 8 11 15 19 22 24 25 27 31
7 8 3 4 8 3 7 12 12 18 23 26 29 13 7 21 28 33 33 31 28 24 20 16 14 14 12 9 5 3 3 6 9 14 15 15 17 25 28 29 31 35 33 32
10 6 2 11 8 12 19 23 20 20 21 23 28 30 2 12 26 32 32 31 27 21 14 12 11 8 5 3 4 6 9 12 18 23 23 25 29 28 29 31 35 39 41 39
6 6 9 23 7 15 27 10 11 15 14 17 19 13 5 15 25 28 31 26 21 16 14 12 9 7 8 11 14 16 17 20 26 35 36 37 41 41 38 35 39 41 39 40
8 14 13 21 9 28 10 7 5 11 4 6 5 3 9 15 21 23 23 22 18 15 13 12 13 15 19 21 25 27 30 31 36 39 42 49 54 57 56 43 36 35 40 43
11 18 18 16 23 13 15 13 12 12 9 6 6 12 15 16 15 15 17 16 16 15 15 16 19 23 26 30 32 33 35 36 38 41 45 48 48 48 47 47 45 45 43 43
9 13 19 19 22 21 12 11 9 4 14 18 13 19 21 22 15 7 21 15 15 16 19 23 27 32 35 38 38 40 42 44 47 48 53 55 60 55 52 52 53 53 51 52
9 10 21 21 21 10 12 14 12 14 10 17 14 17 19 16 17 10 6 8 18 24 27 31 34 37 38 38 40 43 47 51 53 52 54 60 61 60 59 60 56 53 54 55
11 10 12 14 13 25 15 14 13 11 12 13 11 7 6 7 9 13 17 21 26 31 36 39 42 43 43 44 46 49 51 50 50 50 54 58 60 58 58 59 57 55 55 56
9 6 11 8 9 7 9 8 12 10 18 13 8 6 4 11 18 23 28 32 36 40 42 44 47 50 48 48 50 54 54 51 51 51 54 54 51 50 52 57 61 57 58 58
9 5 6 8 10 13 17 18 16 14 15 10 7 6 12 19 25 32 35 38 42 46 49 50 50 53 55 52 52 53 51 51 49 50 47 47 48 48 43 45 50 56 60 62
9 13 8 5 13 15 13 14 15 14 10 7 8 13 18 23 30 35 40 44 46 45 45 43 47 52 54 51 48 41 45 50 51 47 49 48 43 42 40 43 46 48 52 54
17 8 12 5 25 1 28 16 11 8 7 10 15 20 22 25 29 32 37 38 38 37 44 54 50 47 46 48 48 49 50 50 51 50 48 48 44 43 50 53 53 52 57 61
Wind_Direction_850mb
205 250 220 302 7 356 327 305 321 20 9 274 253 253 156 177 195 181 190 180 179 184 182 191 193 198 202 207 211 216 219 222 220 217 216 218 223 230 226 236 243 243 236 242
214 230 190 243 250 264 285 288 240 124 82 238 284 262 331 179 195 198 193 186 184 180 181 188 194 197 201 205 208 216 219 221 221 221 219 223 232 229 249 249 251 249 242 241
243 216 114 222 212 245 230 261 351 304 319 207 262 222 159 140 190 190 198 198 189 188 188 192 195 199 203 207 207 211 217 222 223 221 221 231 235 230 239 240 244 253 257 250
229 149 218 214 236 248 254 52 333 279 259 214 256 153 158 102 121 169 184 193 201 198 197 194 195 199 205 208 207 211 214 222 225 225 219 224 227 236 250 256 256 240 255 246
149 184 192 214 218 239 56 30 317 301 265 260 186 265 117 140 121 101 105 183 205 198 196 196 196 199 199 204 207 209 217 221 222 228 225 230 236 244 242 240 244 262 251 253
191 177 252 210 133 267 148 229 223 239 259 241 139 263 123 101 73 125 31 305 219 202 188 187 189 190 193 192 196 204 218 222 226 231 234 237 235 244 240 252 253 253 271 254
186 200 185 220 223 180 221 243 242 213 198 252 102 241 67 79 60 38 48 64 122 173 179 181 184 189 190 194 192 203 220 227 228 233 235 240 244 237 246 251 253 254 248 257
204 180 202 186 239 265 210 266 263 244 192 142 148 241 93 72 78 75 85 92 105 133 156 169 177 183 188 197 200 205 221 229 230 233 238 238 242 245 252 256 246 253 259 259
189 227 125 213 223 238 178 231 318 292 220 273 131 130 142 133 109 99 99 101 102 112 124 134 142 154 171 199 207 211 220 230 228 231 236 240 242 244 253 258 258 262 273 254
105 154 159 128 180 174 279 101 203 218 197 253 141 255 91 164 135 120 113 112 112 114 114 114 115 128 155 175 192 215 216 215 214 219 238 243 244 252 254 267 286 290 266 269
261 277 140 173 248 133 178 206 230 311 307 299 217 201 98 150 149 131 117 120 119 114 110 102 95 95 104 102 96 94 129 163 165 202 211 240 283 272 262 281 300 298 294 277
217 245 168 97 111 94 355 2 283 266 204 237 306 30 130 135 145 133 127 122 117 114 108 102 95 92 93 89 88 89 92 105 120 138 105 326 308 308 280 285 295 301 294 285
178 239 171 177 173 183 230 109 298 291 286 280 273 218 139 148 148 146 140 134 128 123 116 108 100 93 90 86 83 86 89 99 105 103 325 291 275 292 295 300 307 311 307 306
208 286 305 92 321 33 181 204 226 279 279 276 234 269 160 183 175 160 153 146 138 132 125 118 111 108 103 95 90 84 80 69 57 83 265 269 279 287 293 294 304 307 308 305
273 266 261 37 73 311 307 281 252 260 274 272 278 290 319 197 193 178 167 158 153 148 141 134 127 122 110 99 99 66 2 325 303 299 289 281 279 293 297 294 296 301 301 298
206 182 242 279 229 256 267 273 266 265 270 271 271 275 314 226 184 181 177 173 166 160 163 159 151 147 157 194 256 296 305 304 305 307 303 301 304 301 297 290 290 292 294 293
232 172 242 275 188 261 261 300 291 280 272 275 268 12 127 175 180 186 183 181 178 187 186 184 196 226 260 285 301 312 311 309 304 301 299 299 300 296 290 282 281 283 282 283
212 242 283 281 264 260 48 70 282 267 299 242 281 139 168 173 182 185 191 196 203 203 203 224 253 275 289 300 306 311 310 308 305 302 301 303 302 300 296 287 274 274 281 282
256 252 265 265 259 257 221 214 198 221 142 194 162 145 143 145 161 189 207 215 212 216 236 258 275 288 293 298 299 297 295 292 291 292 294 294 291 289 286 279 273 275 278 280
252 251 263 240 267 271 67 137 170 226 251 161 171 164 166 169 217 128 187 212 228 247 266 278 283 286 288 288 288 287 288 289 288 291 290 289 290 286 281 275 274 277 277 282
229 254 242 237 244 235 115 144 170 231 73 143 169 170 177 207 44 79 72 249 264 275 282 289 291 292 290 290 288 284 286 286 289 288 289 290 288 283 278 276 272 274 277 280
252 251 227 245 244 243 145 152 237 68 121 126 127 136 197 276 298 311 306 297 292 290 291 292 291 291 289 287 287 288 287 289 288 288 288 288 284 278 274 269 266 266 270 277
241 283 339 318 37 97 123 66 116 115 122 119 120 92 345 307 304 305 302 299 296 295 294 294 293 293 290 290 289 289 290 291 289 288 287 286 284 280 271 269 270 271 274 276
183 198 255 217 121 118 133 120 111 110 111 98 64 1 332 318 310 306 303 300 299 297 297 296 294 292 291 290 289 289 291 290 290 287 284 290 290 286 283 276 274 276 273 272
46 170 187 132 139 142 149 137 130 115 91 56 12 348 332 321 311 307 303 301 300 298 297 296 295 294 293 292 289 287 294 289 292 286 288 287 283 287 285 282 279 276 273 270
191 194 227 355 141 60 144 143 135 113 62 16 351 333 325 320 312 310 306 304 304 302 297 300 297 296 294 291 294 295 296 297 293 294 292 291 289 287 288 286 288 284 281 273